Location: Nashville
(36.1660°N, 86.7840°W)
Time: 19:34:56
(UTC-05:00)

Tiros 1 - Pass Details

Date: 29 January 2022
Orbit: 629 x 663 km, 48.4° (Epoch: 27 May)

Event Time Altitude Azimuth Distance (km) Brightness Sun altitude
Rises 18:32:07 0° 188° (S) 2,964 10.8 -16.6°
Reaches altitude 10° 18:35:15 10° 167° (SSE) 2,062 9.7 -17.2°
Enters shadow 18:37:43 16° 136° (SE) 1,708 9.0 -17.7°
